EW5239 Weather Reports


Display with metric or nautical units.
time (UTC)temp
F
wind
direction
speed
MPH
gust
MPH
rain 1hr
in
rain 24hr
in
rain mn
in
humidity
%
barometer
mb
20260903135507 72 269 7.0 11.0 0.00 0.00 0.00 53 1014.5
20260903135454 72 241 7.0 11.0 0.04 0.04 0.04 51 1016.5
20260903135007 73 237 7.0 11.0 0.00 0.00 0.00 53 1014.5
20260903134953 73 240 6.0 11.0 0.04 0.04 0.04 51 1016.6
20260903134507 73 240 7.0 11.0 0.00 0.00 0.00 54 1014.4
20260903134007 72 236 7.0 12.0 0.00 0.00 0.00 53 1014.7
20260903133953 72 258 6.0 9.0 0.04 0.04 0.04 51 1016.6
20260903133507 72 240 6.0 12.0 0.00 0.00 0.00 54 1014.8
20260903133453 72 247 6.0 10.0 0.04 0.04 0.04 52 1016.6
20260903133007 72 254 7.0 10.0 0.00 0.00 0.00 55 1014.9
20260903132953 72 245 8.0 10.0 0.04 0.04 0.04 53 1016.5
20260903132507 72 273 7.0 10.0 0.00 0.00 0.00 55 1014.9
20260903131953 72 263 7.0 8.0 0.00 0.00 0.00 52 1016.9
20260903131453 72 265 7.0 10.0 0.00 0.00 0.00 52 1016.9
20260903131007 72 259 7.0 10.0 0.00 0.00 0.00 54 1014.9
20260903130953 72 249 7.0 10.0 0.00 0.00 0.00 52 1017.1
20260903130507 72 256 6.0 8.0 0.00 0.00 0.00 56 1015.0
20260903130453 72 237 7.0 9.0 0.00 0.00 0.00 54 1016.9
20260903130007 72 290 6.0 8.0 0.00 0.00 0.00 56 1015.0
20260903125959 72 257 7.0 9.0 0.00 0.00 0.00 54 1017.0
20260903125507 72 293 5.0 8.0 0.00 0.00 0.00 56 1015.0
20260903125007 71 257 5.0 8.0 0.00 0.00 0.00 57 1015.2
20260903124953 71 263 5.0 8.0 0.00 0.00 0.00 55 1016.8
20260903124507 71 254 5.0 7.0 0.00 0.00 0.00 57 1015.3
20260903124453 71 263 4.0 8.0 0.00 0.00 0.00 56 1017.1
20260903124008 71 262 5.0 8.0 0.00 0.00 0.00 55 1015.1
20260903123953 71 233 5.0 8.0 0.00 0.00 0.00 53 1017.2
20260903123507 71 255 7.0 9.0 0.00 0.00 0.00 55 1015.2
20260903123453 71 249 7.0 10.0 0.00 0.00 0.00 53 1017.1
20260903123007 72 252 8.0 10.0 0.00 0.00 0.00 54 1015.2
20260903122953 71 265 8.0 10.0 0.00 0.00 0.00 53 1017.1
20260903122454 71 245 5.0 10.0 0.00 0.00 0.00 54 1017.3
20260903122007 71 251 4.0 5.0 0.00 0.00 0.00 58 1015.4
20260903121507 71 259 5.0 8.0 0.00 0.00 0.00 57 1015.3
20260903121453 71 251 5.0 8.0 0.00 0.00 0.00 55 1017.2
20260903120954 71 266 8.0 8.0 0.00 0.00 0.00 54 1017.4
20260903120507 71 260 7.0 8.0 0.00 0.00 0.00 57 1015.4
20260903120453 72 259 8.0 10.0 0.00 0.00 0.00 53 1017.4
20260903115507 71 260 7.0 10.0 0.00 0.00 0.00 58 1015.6
20260903115453 71 289 7.0 11.0 0.00 0.00 0.00 55 1017.5
20260903115007 71 270 6.0 8.0 0.00 0.00 0.00 58 1015.5
20260903114953 71 283 6.0 8.0 0.00 0.00 0.00 56 1017.5
20260903114507 71 265 6.0 8.0 0.00 0.00 0.00 57 1015.5
20260903114007 72 253 6.0 9.0 0.00 0.00 0.00 57 1015.6
20260903113953 72 264 6.0 11.0 0.00 0.00 0.00 54 1017.4
20260903113507 72 240 6.0 10.0 0.00 0.00 0.00 56 1015.7
20260903113454 72 247 6.0 11.0 0.00 0.00 0.00 53 1017.6
20260903113007 72 227 6.0 10.0 0.00 0.00 0.00 56 1015.7
20260903112954 72 252 6.0 11.0 0.00 0.00 0.00 53 1017.6
20260903112507 72 234 6.0 8.0 0.00 0.00 0.00 56 1015.7
20260903112007 72 270 6.0 8.0 0.00 0.00 0.00 56 1015.8
20260903111953 72 267 7.0 11.0 0.00 0.00 0.00 53 1017.8
20260903111507 72 288 6.0 8.0 0.00 0.00 0.00 56 1015.8
20260903111454 72 257 7.0 11.0 0.00 0.00 0.00 53 1017.6
20260903111007 71 286 6.0 8.0 0.00 0.00 0.00 60 1015.9
20260903110953 72 266 6.0 8.0 0.00 0.00 0.00 56 1017.7
20260903110007 71 258 7.0 9.0 0.00 0.00 0.00 58 1016.1
20260903105959 71 258 7.0 10.0 0.00 0.00 0.00 56 1017.7
20260903105453 71 254 8.0 10.0 0.00 0.00 0.00 55 1017.9
20260903105007 71 263 9.0 11.0 0.00 0.00 0.00 58 1016.1
20260903104953 71 268 9.0 11.0 0.00 0.00 0.00 56 1018.0
20260903104507 71 270 7.0 11.0 0.00 0.00 0.00 58 1016.1
20260903104453 71 281 7.0 11.0 0.00 0.00 0.00 55 1017.8
20260903103953 71 278 4.0 7.0 0.00 0.00 0.00 55 1018.1
20260903103453 71 289 6.0 8.0 0.00 0.00 0.00 55 1018.2
20260903102953 72 278 6.0 8.0 0.00 0.00 0.00 53 1018.1
20260903102507 71 237 4.0 5.0 0.00 0.00 0.00 58 1016.3
20260903102453 72 236 5.0 8.0 0.00 0.00 0.00 53 1018.2
20260903102007 71 243 5.0 6.0 0.00 0.00 0.00 57 1016.3
20260903101954 72 242 5.0 8.0 0.00 0.00 0.00 52 1018.2
20260903101507 71 247 5.0 6.0 0.00 0.00 0.00 59 1016.5
20260903101006 71 234 4.0 6.0 0.00 0.00 0.00 60 1016.4
20260903100953 72 230 5.0 11.0 0.00 0.00 0.00 54 1018.2
20260903100507 70 237 5.0 7.0 0.00 0.00 0.00 61 1016.5
20260903100453 72 231 5.0 11.0 0.00 0.00 0.00 54 1018.4
20260903100007 70 260 6.0 7.0 0.00 0.00 0.00 61 1016.5
20260903095959 71 263 6.0 7.0 0.00 0.00 0.00 56 1018.2
20260903095508 70 255 6.0 10.0 0.00 0.00 0.00 61 1016.6
20260903095007 70 243 6.0 10.0 0.00 0.00 0.00 60 1016.7
20260903094507 70 253 5.0 7.0 0.00 0.00 0.00 60 1016.6
20260903094453 72 241 5.0 7.0 0.00 0.00 0.00 53 1018.4
20260903094007 70 273 5.0 7.0 0.00 0.00 0.00 62 1016.7
20260903093953 71 247 5.0 7.0 0.00 0.00 0.00 56 1018.6
20260903093507 70 259 3.0 5.0 0.00 0.00 0.00 62 1016.6
20260903093453 71 240 3.0 5.0 0.00 0.00 0.00 57 1018.4
20260903093007 69 199 3.0 4.0 0.00 0.00 0.00 62 1016.8
20260903092953 71 218 3.0 4.0 0.00 0.00 0.00 55 1018.6
20260903092507 69 220 4.0 5.0 0.00 0.00 0.00 62 1017.0
20260903092453 70 233 4.0 6.0 0.00 0.00 0.00 55 1018.7
20260903092007 69 237 6.0 8.0 0.00 0.00 0.00 62 1017.0
20260903091953 70 256 5.0 8.0 0.00 0.00 0.00 56 1018.7
20260903091507 69 249 6.0 8.0 0.00 0.00 0.00 63 1016.8
20260903091007 69 255 5.0 8.0 0.00 0.00 0.00 63 1017.1
20260903090953 70 257 5.0 8.0 0.00 0.00 0.00 56 1018.6
20260903090007 69 262 5.0 8.0 0.00 0.00 0.00 64 1017.2
20260903085959 69 242 5.0 8.0 0.00 0.00 0.00 60 1019.0
20260903085507 68 280 6.0 8.0 0.00 0.00 0.00 65 1017.1
20260903085453 69 270 6.0 8.0 0.00 0.00 0.00 63 1018.9
20260903085007 68 271 5.0 8.0 0.00 0.00 0.00 65 1017.2
20260903084953 69 269 5.0 8.0 0.00 0.00 0.00 62 1018.9
20260903084507 68 263 5.0 11.0 0.00 0.00 0.00 66 1017.2
20260903084453 69 253 5.0 12.0 0.00 0.00 0.00 63 1018.9
20260903083953 68 265 5.0 12.0 0.00 0.00 0.00 62 1019.0
20260903083507 68 289 5.0 11.0 0.00 0.00 0.00 68 1017.0
20260903083453 68 294 5.0 7.0 0.00 0.00 0.00 64 1018.9
20260903083007 67 287 6.0 8.0 0.00 0.00 0.00 68 1017.2
20260903082953 68 288 6.0 9.0 0.00 0.00 0.00 64 1019.2
20260903082507 67 272 6.0 8.0 0.00 0.00 0.00 68 1017.0
20260903082453 68 288 6.0 9.0 0.00 0.00 0.00 65 1019.1
20260903082007 67 256 4.0 8.0 0.00 0.00 0.00 70 1017.1
20260903081507 67 240 5.0 8.0 0.00 0.00 0.00 70 1017.1
20260903080953 67 304 6.0 8.0 0.00 0.00 0.00 69 1019.1
20260903080507 66 275 6.0 7.0 0.00 0.00 0.00 74 1017.1
20260903080453 67 291 6.0 8.0 0.00 0.00 0.00 69 1018.9
20260903080007 66 269 6.0 8.0 0.00 0.00 0.00 74 1017.0
20260903075959 67 276 6.0 8.0 0.00 0.00 0.00 71 1018.9
20260903075454 67 269 6.0 8.0 0.00 0.00 0.00 71 1018.9
20260903075007 66 260 6.0 8.0 0.00 0.00 0.00 75 1017.2
20260903074953 66 259 6.0 8.0 0.00 0.00 0.00 71 1019.0
20260903074453 66 256 5.0 8.0 0.00 0.00 0.00 72 1018.9
20260903073953 66 254 5.0 7.0 0.00 0.00 0.00 74 1019.0
20260903073507 65 263 6.0 8.0 0.00 0.00 0.00 77 1017.0
20260903073453 65 245 6.0 8.0 0.00 0.00 0.00 74 1018.7
20260903073007 64 255 6.0 8.0 0.00 0.00 0.00 79 1017.1
20260903072953 65 250 6.0 8.0 0.00 0.00 0.00 75 1018.7
20260903072507 64 249 5.0 7.0 0.00 0.00 0.00 82 1017.1
20260903072453 65 261 5.0 7.0 0.00 0.00 0.00 77 1018.9
20260903072007 64 262 4.0 6.0 0.00 0.00 0.00 84 1017.1
20260903071953 64 241 3.0 6.0 0.00 0.00 0.00 79 1018.9
20260903071453 64 235 3.0 4.0 0.00 0.00 0.00 83 1018.8
20260903071006 63 264 3.0 4.0 0.00 0.00 0.00 88 1016.9
20260903070953 63 255 3.0 4.0 0.00 0.00 0.00 87 1018.9
20260903070507 62 269 3.0 4.0 0.00 0.00 0.00 91 1017.0
20260903070453 63 272 3.0 4.0 0.00 0.00 0.00 90 1018.9
20260903070007 62 270 3.0 4.0 0.00 0.00 0.00 92 1016.9
20260903065959 63 267 3.0 4.0 0.00 0.00 0.00 92 1019.0
20260903065507 62 267 2.0 4.0 0.00 0.00 0.00 93 1016.9
20260903065454 62 255 2.0 4.0 0.00 0.00 0.00 96 1018.6
20260903064953 61 247 1.0 4.0 0.00 0.00 0.00 98 1018.8
20260903064507 61 181 0.0 2.0 0.00 0.00 0.00 94 1016.8
20260903064007 60 253 1.0 2.0 0.00 0.00 0.00 96 1016.7
20260903063953 60 251 2.0 2.0 0.00 0.00 0.00 99 1018.7
20260903063507 60 277 1.0 3.0 0.00 0.00 0.00 96 1016.9
20260903063454 60 257 2.0 3.0 0.00 0.00 0.00 99 1018.8
20260903062454 59 270 2.0 3.0 0.00 0.00 0.00 99 1018.6
20260903062007 59 258 1.0 3.0 0.00 0.00 0.00 97 1016.7
20260903061953 59 250 2.0 3.0 0.00 0.00 0.00 99 1018.7
20260903061507 58 265 0.0 3.0 0.00 0.00 0.00 98 1016.9
20260903061453 58 222 1.0 3.0 0.00 0.00 0.00 99 1018.6
20260903061006 58 0 0.0 0.0 0.00 0.00 0.00 97 1016.7
20260903060507 57 0 0.0 0.0 0.00 0.00 0.00 97 1016.7
20260903060453 58 193 1.0 2.0 0.00 0.00 0.00 99 1018.6
20260903060007 57 209 0.0 2.0 0.00 0.00 0.00 97 1016.8
20260903055959 57 214 1.0 2.0 0.00 0.00 0.00 99 1019.0
20260903055507 57 209 0.0 2.0 0.00 0.00 0.00 98 1016.8
20260903055453 56 219 1.0 2.0 0.00 0.00 0.00 99 1018.8
20260903054953 56 239 1.0 2.0 0.00 0.00 0.00 99 1018.8
20260903054507 56 0 0.0 0.0 0.00 0.00 0.00 98 1017.0
20260903053953 55 188 1.0 2.0 0.00 0.00 0.00 97 1018.8
20260903053506 56 0 0.0 0.0 0.00 0.00 0.00 98 1017.0
20260903053007 56 0 0.0 0.0 0.00 0.00 0.00 98 1016.8
20260903052953 55 183 1.0 2.0 0.00 0.00 0.00 97 1018.9
20260903052453 54 181 0.0 2.0 0.00 0.00 0.00 97 1018.7
20260903052006 55 0 0.0 0.0 0.00 0.00 0.00 97 1016.7
20260903051507 55 0 0.0 0.0 0.00 0.00 0.00 97 1016.7
20260903051007 54 0 0.0 0.0 0.00 0.00 0.00 97 1016.7
20260903050953 53 0 0.0 0.0 0.00 0.00 0.00 98 1019.0
20260903050453 53 90 0.0 1.0 0.00 0.00 0.00 98 1018.9
20260903050006 53 0 0.0 0.0 0.00 0.00 0.00 98 1016.8
20260903050000 53 90 0.0 1.0 0.00 0.00 0.00 98 1018.8
20260903045507 53 0 0.0 0.0 0.00 0.00 0.00 98 1016.7
20260903045007 53 0 0.0 0.0 0.00 0.00 0.00 98 1016.8
20260903044954 53 0 0.0 0.0 0.00 0.00 0.00 98 1018.8
20260903044506 52 0 0.0 0.0 0.00 0.00 0.00 98 1016.7
20260903044453 53 0 0.0 0.0 0.00 0.00 0.00 98 1018.8
20260903044007 52 0 0.0 0.0 0.00 0.00 0.00 99 1016.9
20260903043953 52 135 0.0 1.0 0.00 0.00 0.00 98 1019.0
20260903043507 51 0 0.0 0.0 0.00 0.00 0.00 99 1016.7
20260903043453 52 135 0.0 1.0 0.00 0.00 0.00 98 1018.8
20260903043006 51 0 0.0 0.0 0.00 0.00 0.00 99 1016.8
20260903042953 52 0 0.0 0.0 0.00 0.00 0.00 99 1019.0
20260903042453 51 0 0.0 0.0 0.00 0.00 0.00 99 1018.8
20260903042007 51 0 0.0 0.0 0.00 0.00 0.00 99 1016.8
20260903041954 52 181 0.0 1.0 0.00 0.00 0.00 99 1018.8
20260903041506 51 0 0.0 0.0 0.00 0.00 0.00 99 1016.8
20260903041453 52 181 0.0 1.0 0.00 0.00 0.00 99 1018.8
20260903041007 51 0 0.0 0.0 0.00 0.00 0.00 99 1016.8
20260903040953 51 181 0.0 1.0 0.00 0.00 0.00 99 1018.8
20260903040507 51 0 0.0 0.0 0.00 0.00 0.00 99 1016.7
20260903040455 51 181 0.0 1.0 0.00 0.00 0.00 99 1018.8
20260903040009 51 0 0.0 0.0 0.00 0.00 0.00 99 1016.8
20260903035506 51 0 0.0 0.0 0.00 0.00 0.00 99 1016.6
20260903035453 51 0 0.0 0.0 0.00 0.00 0.00 99 1019.0
20260903035007 51 0 0.0 0.0 0.00 0.00 0.00 99 1016.7
20260903034953 51 0 0.0 0.0 0.00 0.00 0.00 99 1018.6
20260903034507 51 0 0.0 0.0 0.00 0.00 0.00 99 1016.6
20260903034453 52 0 0.0 0.0 0.00 0.00 0.00 99 1018.7
20260903034006 51 0 0.0 0.0 0.00 0.00 0.00 99 1016.6
20260903033954 52 0 0.0 0.0 0.00 0.00 0.00 98 1018.9
20260903033507 51 0 0.0 0.0 0.00 0.00 0.00 99 1016.5
20260903033454 52 0 0.0 0.0 0.00 0.00 0.00 99 1018.7
20260903033007 51 0 0.0 0.0 0.00 0.00 0.00 98 1016.6
20260903032953 51 0 0.0 0.0 0.00 0.00 0.00 99 1018.7
20260903032507 51 0 0.0 0.0 0.00 0.00 0.00 98 1016.8
20260903032453 51 0 0.0 0.0 0.00 0.00 0.00 99 1018.7
20260903031953 51 0 0.0 0.0 0.00 0.00 0.00 99 1018.7
20260903031507 51 0 0.0 0.0 0.00 0.00 0.00 98 1016.8
20260903031453 50 0 0.0 0.0 0.00 0.00 0.00 99 1018.6
20260903031007 51 0 0.0 0.0 0.00 0.00 0.00 98 1016.7
20260903030507 51 0 0.0 0.0 0.00 0.00 0.00 98 1016.7
20260903030006 51 0 0.0 0.0 0.00 0.00 0.00 98 1016.6
20260903025959 51 0 0.0 0.0 0.00 0.00 0.00 99 1018.7
20260903025506 51 0 0.0 0.0 0.00 0.00 0.00 98 1016.7
20260903025453 51 0 0.0 0.0 0.00 0.00 0.00 99 1018.6
20260903025007 51 0 0.0 0.0 0.00 0.00 0.00 98 1016.7
20260903024954 51 0 0.0 0.0 0.00 0.00 0.00 99 1018.6
20260903024507 51 0 0.0 0.0 0.00 0.00 0.00 97 1016.7
20260903024454 52 0 0.0 0.0 0.00 0.00 0.00 99 1018.8
20260903024007 51 0 0.0 0.0 0.00 0.00 0.00 97 1016.7
20260903023953 52 0 0.0 0.0 0.00 0.00 0.00 98 1019.0
20260903023507 52 0 0.0 0.0 0.00 0.00 0.00 97 1016.8
20260903023453 52 0 0.0 0.0 0.00 0.00 0.00 98 1018.9
20260903022953 52 0 0.0 0.0 0.00 0.00 0.00 98 1018.7
20260903022453 52 0 0.0 0.0 0.00 0.00 0.00 99 1018.9
20260903022007 52 0 0.0 0.0 0.00 0.00 0.00 96 1016.8
20260903021953 52 0 0.0 0.0 0.00 0.00 0.00 99 1018.7
20260903021507 52 0 0.0 0.0 0.00 0.00 0.00 96 1016.7
20260903021454 52 0 0.0 0.0 0.00 0.00 0.00 98 1018.8
20260903021007 52 0 0.0 0.0 0.00 0.00 0.00 96 1016.7
20260903020954 52 0 0.0 0.0 0.00 0.00 0.00 98 1018.8
20260903020507 53 0 0.0 0.0 0.00 0.00 0.00 96 1016.7
20260903020453 52 0 0.0 0.0 0.00 0.00 0.00 98 1018.8
20260903020007 53 0 0.0 0.0 0.00 0.00 0.00 96 1016.8
20260903015959 52 0 0.0 0.0 0.00 0.00 0.00 98 1018.8
20260903015506 53 0 0.0 0.0 0.00 0.00 0.00 96 1016.8
20260903015453 53 0 0.0 0.0 0.00 0.00 0.00 98 1018.9
20260903015007 53 0 0.0 0.0 0.00 0.00 0.00 96 1016.8
20260903014954 53 0 0.0 0.0 0.00 0.00 0.00 98 1018.7
20260903014507 53 0 0.0 0.0 0.00 0.00 0.00 96 1016.9
20260903014007 53 0 0.0 0.0 0.00 0.00 0.00 96 1016.7
20260903013507 53 0 0.0 0.0 0.00 0.00 0.00 96 1016.9
20260903013453 53 0 0.0 0.0 0.00 0.00 0.00 98 1018.7
20260903013006 53 0 0.0 0.0 0.00 0.00 0.00 96 1016.9
20260903012953 53 0 0.0 0.0 0.00 0.00 0.00 98 1018.9
20260903012454 53 0 0.0 0.0 0.00 0.00 0.00 98 1018.7
20260903012007 54 0 0.0 0.0 0.00 0.00 0.00 95 1016.8
20260903011953 54 0 0.0 0.0 0.00 0.00 0.00 97 1018.9
20260903011453 54 0 0.0 0.0 0.00 0.00 0.00 97 1018.8
20260903011006 54 0 0.0 0.0 0.00 0.00 0.00 95 1016.9
20260903010953 54 0 0.0 0.0 0.00 0.00 0.00 97 1018.8
20260903010507 54 0 0.0 0.0 0.00 0.00 0.00 95 1016.7
20260903010453 54 0 0.0 0.0 0.00 0.00 0.00 97 1018.9
20260903010007 54 0 0.0 0.0 0.00 0.00 0.00 95 1016.9
20260903005507 54 0 0.0 0.0 0.00 0.00 0.00 95 1016.9
20260903005007 55 0 0.0 0.0 0.00 0.00 0.00 95 1016.8
20260903004953 55 0 0.0 0.0 0.00 0.00 0.00 97 1018.8
20260903004506 55 0 0.0 0.0 0.00 0.00 0.00 95 1017.0
20260903004454 55 0 0.0 0.0 0.00 0.00 0.00 97 1018.8
20260903004006 55 0 0.0 0.0 0.00 0.00 0.00 95 1016.8
20260903003953 55 0 0.0 0.0 0.00 0.00 0.00 97 1018.9
20260903003507 55 0 0.0 0.0 0.00 0.00 0.00 95 1016.9
20260903003453 55 0 0.0 0.0 0.00 0.00 0.00 97 1018.8
20260903002954 55 0 0.0 0.0 0.00 0.00 0.00 97 1018.8
20260903002506 55 0 0.0 0.0 0.00 0.00 0.00 95 1016.7
20260903002453 55 0 0.0 0.0 0.00 0.00 0.00 97 1018.8
20260903002007 55 0 0.0 0.0 0.00 0.00 0.00 95 1016.9
20260903001507 55 0 0.0 0.0 0.00 0.00 0.00 95 1016.8
20260903001454 55 0 0.0 0.0 0.00 0.00 0.00 97 1018.8
20260903001006 55 0 0.0 0.0 0.00 0.00 0.00 95 1016.8
20260903000953 55 0 0.0 0.0 0.00 0.00 0.00 97 1018.7
20260903000506 55 0 0.0 0.0 0.00 0.00 0.00 95 1016.8
20260903000454 55 0 0.0 0.0 0.00 0.00 0.00 97 1018.8
20260903000007 55 0 0.0 0.0 0.00 0.00 0.00 95 1016.7
20260902235454 55 0 0.0 0.0 0.00 0.00 0.00 96 1018.8
20260902235006 56 0 0.0 0.0 0.00 0.00 0.00 95 1016.8
20260902234953 55 0 0.0 0.0 0.00 0.00 0.00 96 1018.9
20260902234507 56 0 0.0 0.0 0.00 0.00 0.00 95 1016.8
20260902234453 55 0 0.0 0.0 0.00 0.00 0.00 96 1018.8
20260902234006 55 0 0.0 0.0 0.00 0.00 0.00 95 1016.8
20260902233953 55 0 0.0 0.0 0.00 0.00 0.00 96 1018.9
20260902233506 56 0 0.0 0.0 0.00 0.00 0.00 95 1016.8
20260902233453 55 0 0.0 0.0 0.00 0.00 0.00 96 1019.0
20260902233007 56 0 0.0 0.0 0.00 0.00 0.00 95 1016.7
20260902232954 56 0 0.0 0.0 0.00 0.00 0.00 96 1018.9
20260902232506 56 0 0.0 0.0 0.00 0.00 0.00 94 1016.7
20260902232453 56 0 0.0 0.0 0.00 0.00 0.00 96 1018.8
20260902232006 56 0 0.0 0.0 0.00 0.00 0.00 94 1016.9
20260902231954 56 0 0.0 0.0 0.00 0.00 0.00 95 1018.9
20260902231507 56 0 0.0 0.0 0.00 0.00 0.00 94 1016.7
20260902231453 56 0 0.0 0.0 0.00 0.00 0.00 95 1019.0
20260902230506 56 0 0.0 0.0 0.00 0.00 0.00 94 1016.9
20260902230453 56 0 0.0 0.0 0.00 0.00 0.00 95 1018.8
20260902230007 56 0 0.0 0.0 0.00 0.00 0.00 93 1016.9
20260902225959 56 0 0.0 0.0 0.00 0.00 0.00 94 1018.9
20260902225453 56 0 0.0 0.0 0.00 0.00 0.00 94 1018.8
20260902225006 56 0 0.0 0.0 0.00 0.00 0.00 93 1016.9
20260902224954 56 0 0.0 0.0 0.00 0.00 0.00 94 1018.8
20260902224507 56 0 0.0 0.0 0.00 0.00 0.00 93 1016.9
20260902224454 56 0 0.0 0.0 0.00 0.00 0.00 93 1018.8
20260902224007 56 0 0.0 0.0 0.00 0.00 0.00 92 1016.8
20260902223953 56 0 0.0 0.0 0.00 0.00 0.00 92 1018.9
20260902223506 56 0 0.0 0.0 0.00 0.00 0.00 92 1016.7
20260902223453 56 0 0.0 0.0 0.00 0.00 0.00 92 1018.8
20260902222506 56 0 0.0 0.0 0.00 0.00 0.00 92 1016.8
20260902222453 56 0 0.0 0.0 0.00 0.00 0.00 92 1018.7
20260902222007 57 0 0.0 0.0 0.00 0.00 0.00 92 1016.6
20260902221954 56 0 0.0 0.0 0.00 0.00 0.00 92 1018.5
20260902221453 57 0 0.0 0.0 0.00 0.00 0.00 91 1018.6
20260902220954 57 0 0.0 0.0 0.00 0.00 0.00 91 1018.6
20260902220506 57 0 0.0 0.0 0.00 0.00 0.00 90 1016.7
20260902220453 57 0 0.0 0.0 0.00 0.00 0.00 91 1018.7
20260902220007 57 0 0.0 0.0 0.00 0.00 0.00 90 1016.7
20260902215454 57 0 0.0 0.0 0.00 0.00 0.00 89 1018.7
20260902215006 57 0 0.0 0.0 0.00 0.00 0.00 90 1016.7
20260902214506 58 0 0.0 0.0 0.00 0.00 0.00 90 1016.7
20260902214454 57 0 0.0 0.0 0.00 0.00 0.00 89 1018.7
20260902213953 58 0 0.0 0.0 0.00 0.00 0.00 89 1018.6
20260902213506 58 0 0.0 0.0 0.00 0.00 0.00 89 1016.7
20260902212954 58 0 0.0 0.0 0.00 0.00 0.00 88 1018.7
20260902212507 58 0 0.0 0.0 0.00 0.00 0.00 88 1016.7
20260902212453 58 0 0.0 0.0 0.00 0.00 0.00 88 1018.6
20260902212006 58 0 0.0 0.0 0.00 0.00 0.00 88 1016.7
20260902211953 58 0 0.0 0.0 0.00 0.00 0.00 88 1018.5
20260902211507 58 0 0.0 0.0 0.00 0.00 0.00 88 1016.6
20260902211007 59 0 0.0 0.0 0.00 0.00 0.00 88 1016.7
20260902210954 59 0 0.0 0.0 0.00 0.00 0.00 88 1018.5
20260902210506 59 0 0.0 0.0 0.00 0.00 0.00 88 1016.6
20260902210006 59 0 0.0 0.0 0.00 0.00 0.00 86 1016.5
20260902205959 59 0 0.0 0.0 0.00 0.00 0.00 86 1018.7
20260902205507 59 0 0.0 0.0 0.00 0.00 0.00 86 1016.8
20260902205453 60 0 0.0 0.0 0.00 0.00 0.00 86 1018.6
20260902205006 60 0 0.0 0.0 0.00 0.00 0.00 86 1016.5
20260902204953 60 0 0.0 0.0 0.00 0.00 0.00 86 1018.7
20260902204506 60 0 0.0 0.0 0.00 0.00 0.00 86 1016.7
20260902203953 60 0 0.0 0.0 0.00 0.00 0.00 86 1018.4
20260902203506 60 0 0.0 0.0 0.00 0.00 0.00 86 1016.7
20260902203006 60 0 0.0 0.0 0.00 0.00 0.00 86 1016.9
20260902202507 60 0 0.0 0.0 0.00 0.00 0.00 86 1016.6
20260902202453 60 0 0.0 0.0 0.00 0.00 0.00 86 1018.7
20260902202006 61 0 0.0 0.0 0.00 0.00 0.00 86 1016.8
20260902201953 61 0 0.0 0.0 0.00 0.00 0.00 87 1018.6
20260902201506 61 0 0.0 0.0 0.00 0.00 0.00 87 1016.8
20260902201455 61 181 1.0 2.0 0.00 0.00 0.00 87 1018.9
20260902201007 61 0 0.0 0.0 0.00 0.00 0.00 87 1016.9
20260902200953 61 181 1.0 2.0 0.00 0.00 0.00 87 1018.9
20260902200507 60 0 0.0 0.0 0.00 0.00 0.00 87 1017.0
20260902200453 61 181 1.0 2.0 0.00 0.00 0.00 87 1018.9
20260902200006 60 225 0.0 1.0 0.00 0.00 0.00 87 1017.0
20260902195959 61 181 1.0 2.0 0.00 0.00 0.00 87 1019.2
20260902195506 60 225 0.0 1.0 0.00 0.00 0.00 87 1017.1
20260902195454 61 181 0.0 1.0 0.00 0.00 0.00 87 1019.0
20260902194506 60 0 0.0 0.0 0.00 0.00 0.00 86 1017.1
20260902194453 60 181 0.0 2.0 0.00 0.00 0.00 86 1019.0
20260902194007 61 0 0.0 0.0 0.00 0.00 0.00 86 1016.9
20260902193953 61 181 0.0 1.0 0.00 0.00 0.00 86 1019.0
20260902193507 61 0 0.0 0.0 0.00 0.00 0.00 86 1017.1
20260902193453 61 225 0.0 1.0 0.00 0.00 0.00 86 1018.9
20260902193006 61 270 0.0 1.0 0.00 0.00 0.00 85 1017.1
20260902192954 61 225 1.0 2.0 0.00 0.00 0.00 84 1019.0
20260902192506 61 270 0.0 1.0 0.00 0.00 0.00 84 1017.1
20260902192453 61 225 1.0 2.0 0.00 0.00 0.00 84 1019.1
20260902192007 61 270 0.0 1.0 0.00 0.00 0.00 84 1017.2
20260902191506 61 181 0.0 1.0 0.00 0.00 0.00 84 1017.2
20260902191453 62 140 1.0 2.0 0.00 0.00 0.00 84 1019.0
20260902191006 61 181 0.0 1.0 0.00 0.00 0.00 84 1017.2
20260902190953 62 148 1.0 2.0 0.00 0.00 0.00 83 1019.1
20260902190507 61 181 0.0 1.0 0.00 0.00 0.00 83 1017.1
20260902190454 62 168 1.0 2.0 0.00 0.00 0.00 83 1019.2
20260902190006 61 181 0.0 1.0 0.00 0.00 0.00 83 1017.2
20260902185959 62 181 1.0 2.0 0.00 0.00 0.00 83 1019.1
20260902185506 61 0 0.0 0.0 0.00 0.00 0.00 83 1017.3
20260902185453 62 181 0.0 1.0 0.00 0.00 0.00 83 1019.1
20260902185007 62 0 0.0 0.0 0.00 0.00 0.00 82 1017.3
20260902184506 62 0 0.0 0.0 0.00 0.00 0.00 82 1017.1
20260902184453 62 181 0.0 1.0 0.00 0.00 0.00 82 1019.2
20260902184006 62 181 0.0 1.0 0.00 0.00 0.00 82 1017.3
20260902183506 62 181 0.0 1.0 0.00 0.00 0.00 82 1017.2
20260902183453 62 172 1.0 2.0 0.00 0.00 0.00 80 1019.3
20260902183007 62 0 0.0 0.0 0.00 0.00 0.00 81 1017.2
20260902182506 62 0 0.0 0.0 0.00 0.00 0.00 80 1017.1
20260902182454 63 0 0.0 0.0 0.00 0.00 0.00 77 1019.1
20260902182006 62 0 0.0 0.0 0.00 0.00 0.00 79 1017.1
20260902181953 63 0 0.0 0.0 0.00 0.00 0.00 77 1019.0
20260902181507 63 0 0.0 0.0 0.00 0.00 0.00 77 1017.0
20260902180953 63 0 0.0 0.0 0.00 0.00 0.00 76 1019.1
20260902180507 63 0 0.0 0.0 0.00 0.00 0.00 76 1016.9
20260902180453 64 0 0.0 0.0 0.00 0.00 0.00 75 1018.9
20260902180007 64 0 0.0 0.0 0.00 0.00 0.00 75 1016.9
20260902175959 64 0 0.0 0.0 0.00 0.00 0.00 74 1018.9
20260902175453 64 0 0.0 0.0 0.00 0.00 0.00 74 1019.0
20260902175007 64 0 0.0 0.0 0.00 0.00 0.00 74 1017.1
20260902174953 64 0 0.0 0.0 0.00 0.00 0.00 73 1018.8
20260902174506 65 0 0.0 0.0 0.00 0.00 0.00 73 1017.0
20260902174453 64 225 0.0 2.0 0.00 0.00 0.00 73 1018.6
20260902173954 65 225 1.0 2.0 0.00 0.00 0.00 72 1018.8
20260902173507 65 0 0.0 0.0 0.00 0.00 0.00 72 1016.8
20260902173006 65 0 0.0 0.0 0.00 0.00 0.00 71 1016.7
20260902172953 65 241 2.0 2.0 0.00 0.00 0.00 70 1018.7
20260902172506 66 0 0.0 0.0 0.00 0.00 0.00 71 1016.7
20260902172454 65 225 2.0 2.0 0.00 0.00 0.00 70 1018.7
20260902172007 66 0 0.0 0.0 0.00 0.00 0.00 71 1016.7
20260902171953 66 225 2.0 2.0 0.00 0.00 0.00 70 1018.6
20260902171453 66 225 2.0 2.0 0.00 0.00 0.00 69 1018.6
20260902171006 66 0 0.0 0.0 0.00 0.00 0.00 69 1016.6
20260902170954 66 225 2.0 2.0 0.00 0.00 0.00 68 1018.6
20260902170507 67 304 0.0 2.0 0.00 0.00 0.00 68 1016.7
20260902170453 66 229 2.0 2.0 0.00 0.00 0.00 67 1018.6
20260902170000 67 249 2.0 2.0 0.00 0.00 0.00 67 1018.8
20260902165506 67 272 0.0 2.0 0.00 0.00 0.00 67 1016.7
20260902165453 67 268 2.0 2.0 0.00 0.00 0.00 66 1018.7
20260902164953 67 274 2.0 2.0 0.00 0.00 0.00 66 1018.5
20260902164506 67 270 2.0 2.0 0.00 0.00 0.00 66 1016.7
20260902163953 67 271 2.0 2.0 0.00 0.00 0.00 66 1018.5
20260902163507 68 273 2.0 2.0 0.00 0.00 0.00 66 1016.5
20260902163453 68 279 2.0 3.0 0.00 0.00 0.00 65 1018.6
20260902163006 68 272 2.0 3.0 0.00 0.00 0.00 64 1016.7
20260902162953 68 281 3.0 3.0 0.00 0.00 0.00 65 1018.5
20260902162453 68 279 3.0 3.0 0.00 0.00 0.00 64 1018.6
20260902162007 68 287 3.0 3.0 0.00 0.00 0.00 64 1016.7
20260902161953 68 270 3.0 3.0 0.00 0.00 0.00 64 1018.5
20260902161506 68 280 3.0 4.0 0.00 0.00 0.00 64 1016.8
20260902161454 68 271 3.0 4.0 0.00 0.00 0.00 63 1018.8
20260902160953 68 269 4.0 4.0 0.00 0.00 0.00 63 1018.7
20260902160506 69 283 4.0 4.0 0.00 0.00 0.00 63 1016.7
20260902160453 68 280 4.0 4.0 0.00 0.00 0.00 63 1018.7
20260902160009 69 282 4.0 4.0 0.00 0.00 0.00 63 1016.8
20260902160000 68 288 4.0 4.0 0.00 0.00 0.00 63 1018.7
20260902155506 69 268 4.0 4.0 0.00 0.00 0.00 63 1016.8
20260902155453 69 278 4.0 4.0 0.00 0.00 0.00 62 1018.8
20260902155007 69 285 4.0 5.0 0.00 0.00 0.00 62 1016.7
20260902154953 69 289 4.0 6.0 0.00 0.00 0.00 61 1018.8
20260902154506 69 271 5.0 5.0 0.00 0.00 0.00 61 1016.8
20260902154453 69 300 4.0 6.0 0.00 0.00 0.00 60 1018.7
20260902154006 69 249 5.0 6.0 0.00 0.00 0.00 60 1016.7
20260902153953 69 289 5.0 7.0 0.00 0.00 0.00 59 1018.7
20260902153506 69 265 6.0 9.0 0.00 0.00 0.00 59 1016.8
20260902153453 69 289 7.0 9.0 0.00 0.00 0.00 58 1018.7
20260902153006 70 271 6.0 9.0 0.00 0.00 0.00 57 1016.8
20260902152953 70 278 7.0 9.0 0.00 0.00 0.00 58 1018.7
20260902152506 70 275 6.0 8.0 0.00 0.00 0.00 58 1017.0
20260902151953 70 280 8.0 12.0 0.00 0.00 0.00 56 1019.0
20260902151506 70 285 7.0 11.0 0.00 0.00 0.00 57 1017.0
20260902151453 70 290 7.0 12.0 0.00 0.00 0.00 56 1019.0
20260902151006 70 269 6.0 8.0 0.00 0.00 0.00 57 1016.9
20260902150953 70 294 7.0 9.0 0.00 0.00 0.00 56 1019.0
20260902150506 70 271 7.0 11.0 0.00 0.00 0.00 57 1016.9
20260902150454 70 284 8.0 11.0 0.00 0.00 0.00 56 1018.9
20260902150006 71 292 8.0 11.0 0.00 0.00 0.00 56 1016.8
20260902145959 71 283 8.0 11.0 0.00 0.00 0.00 55 1019.0
20260902145506 71 292 8.0 10.0 0.00 0.00 0.00 55 1016.9
20260902145453 71 284 8.0 11.0 0.00 0.00 0.00 54 1019.0
20260902145006 71 282 7.0 9.0 0.00 0.00 0.00 55 1016.9
20260902144953 71 271 7.0 10.0 0.00 0.00 0.00 54 1019.1
20260902144007 71 285 7.0 10.0 0.00 0.00 0.00 56 1016.9
20260902143954 71 281 8.0 11.0 0.00 0.00 0.00 54 1018.7
20260902143506 71 283 6.0 9.0 0.00 0.00 0.00 56 1016.8
20260902143453 71 287 7.0 10.0 0.00 0.00 0.00 54 1018.8
20260902143006 71 264 6.0 8.0 0.00 0.00 0.00 56 1016.8
20260902142954 71 304 7.0 9.0 0.00 0.00 0.00 54 1018.8
20260902142506 71 255 6.0 8.0 0.00 0.00 0.00 56 1016.8
20260902142453 71 280 7.0 9.0 0.00 0.00 0.00 55 1019.0
20260902142007 71 255 6.0 7.0 0.00 0.00 0.00 58 1016.7
20260902141953 71 267 6.0 7.0 0.00 0.00 0.00 57 1019.0
20260902141453 71 264 6.0 7.0 0.00 0.00 0.00 56 1019.0
20260902141006 71 266 5.0 8.0 0.00 0.00 0.00 57 1016.8
20260902140953 71 269 5.0 8.0 0.00 0.00 0.00 55 1018.9
20260902140006 71 282 7.0 9.0 0.00 0.00 0.00 56 1017.0
20260902135959 71 298 8.0 10.0 0.00 0.00 0.00 55 1018.9